TimeEDT,TemperatureF,Dew PointF,Humidity,Sea Level PressureIn,VisibilityMPH,Wind Direction,Wind SpeedMPH,Gust SpeedMPH,PrecipitationIn,Events,Conditions,WindDirDegrees,DateUTC
12:15 AM,75.2,73.4,94,29.81,7.0,Calm,Calm,-,N/A,,Clear,0,2013-09-03 04:15:00
12:35 AM,75.2,71.6,89,29.80,7.0,Calm,Calm,-,N/A,,Clear,0,2013-09-03 04:35:00
12:55 AM,73.4,71.6,94,29.80,7.0,Calm,Calm,-,N/A,,Clear,0,2013-09-03 04:55:00
1:15 AM,73.4,71.6,94,29.80,7.0,Calm,Calm,-,N/A,,Clear,0,2013-09-03 05:15:00
1:35 AM,73.4,73.4,100,29.80,7.0,SSW,3.5,-,N/A,,Clear,210,2013-09-03 05:35:00
1:55 AM,73.4,73.4,100,29.79,7.0,SW,4.6,-,N/A,,Clear,220,2013-09-03 05:55:00
2:15 AM,73.4,71.6,94,29.79,7.0,SW,3.5,-,N/A,,Clear,230,2013-09-03 06:15:00
2:35 AM,73.4,73.4,100,29.78,7.0,SW,4.6,-,N/A,,Clear,220,2013-09-03 06:35:00
2:55 AM,73.4,71.6,94,29.77,5.0,SW,3.5,-,N/A,,Clear,230,2013-09-03 06:55:00
3:15 AM,73.4,71.6,94,29.77,7.0,Calm,Calm,-,N/A,,Clear,0,2013-09-03 07:15:00
3:35 AM,71.6,71.6,100,29.77,3.0,Calm,Calm,-,N/A,,Clear,0,2013-09-03 07:35:00
3:55 AM,73.4,71.6,94,29.76,5.0,SW,4.6,-,N/A,,Clear,230,2013-09-03 07:55:00
4:15 AM,73.4,71.6,94,29.76,7.0,SW,4.6,-,N/A,,Clear,230,2013-09-03 08:15:00
4:35 AM,73.4,71.6,94,29.76,7.0,SW,4.6,-,N/A,,Clear,230,2013-09-03 08:35:00
4:55 AM,73.4,71.6,94,29.77,5.0,WSW,5.8,-,N/A,,Clear,240,2013-09-03 08:55:00
5:15 AM,71.6,71.6,100,29.77,5.0,Calm,Calm,-,N/A,,Clear,0,2013-09-03 09:15:00
5:35 AM,71.6,69.8,94,29.78,2.5,Calm,Calm,-,N/A,,Clear,0,2013-09-03 09:35:00
5:55 AM,71.6,69.8,94,29.78,4.0,Calm,Calm,-,N/A,,Clear,0,2013-09-03 09:55:00
6:15 AM,71.6,69.8,94,29.79,1.5,Calm,Calm,-,N/A,,Mist,0,2013-09-03 10:15:00
6:35 AM,71.6,69.8,94,29.80,3.0,Calm,Calm,-,N/A,,Clear,0,2013-09-03 10:35:00
6:55 AM,69.8,69.8,100,29.81,1.2,Calm,Calm,-,N/A,,Mist,0,2013-09-03 10:55:00
7:15 AM,71.6,69.8,94,29.81,1.0,Calm,Calm,-,N/A,,Mist,0,2013-09-03 11:15:00
7:35 AM,71.6,69.8,94,29.82,1.2,Calm,Calm,-,N/A,,Mist,0,2013-09-03 11:35:00
7:55 AM,71.6,71.6,100,29.83,2.5,Calm,Calm,-,N/A,,Clear,0,2013-09-03 11:55:00
8:15 AM,73.4,73.4,100,29.83,4.0,Calm,Calm,-,N/A,,Clear,0,2013-09-03 12:15:00
8:35 AM,75.2,73.4,94,29.84,7.0,Calm,Calm,-,N/A,,Clear,0,2013-09-03 12:35:00
8:55 AM,78.8,73.4,83,29.84,7.0,Calm,Calm,-,N/A,,Clear,0,2013-09-03 12:55:00
9:15 AM,80.6,73.4,79,29.84,10.0,NNE,4.6,-,N/A,,Clear,20,2013-09-03 13:15:00
9:35 AM,80.6,69.8,70,29.85,10.0,NNE,6.9,-,N/A,,Clear,20,2013-09-03 13:35:00
9:55 AM,82.4,68.0,62,29.86,10.0,NNE,6.9,-,N/A,,Clear,20,2013-09-03 13:55:00
10:15 AM,82.4,66.2,58,29.86,10.0,NNE,10.4,-,N/A,,Clear,20,2013-09-03 14:15:00
10:35 AM,82.4,66.2,58,29.87,10.0,ENE,9.2,-,N/A,,Clear,60,2013-09-03 14:35:00
10:55 AM,84.2,64.4,51,29.87,10.0,NE,6.9,-,N/A,,Clear,50,2013-09-03 14:55:00
11:15 AM,84.2,64.4,51,29.87,10.0,NE,5.8,-,N/A,,Clear,40,2013-09-03 15:15:00
11:35 AM,86.0,64.4,48,29.87,10.0,NNE,5.8,-,N/A,,Clear,30,2013-09-03 15:35:00
11:55 AM,87.8,62.6,43,29.87,10.0,East,4.6,-,N/A,,Clear,90,2013-09-03 15:55:00
12:15 PM,87.8,62.6,43,29.87,10.0,Calm,Calm,-,N/A,,Scattered Clouds,0,2013-09-03 16:15:00
12:35 PM,86.0,60.8,43,29.86,10.0,Calm,Calm,-,N/A,,Overcast,0,2013-09-03 16:35:00
12:55 PM,86.0,62.6,45,29.85,10.0,NNE,4.6,-,N/A,,Overcast,20,2013-09-03 16:55:00
1:15 PM,87.8,64.4,46,29.85,10.0,North,5.8,-,N/A,,Mostly Cloudy,10,2013-09-03 17:15:00
1:35 PM,86.0,62.6,45,29.85,10.0,North,4.6,-,N/A,,Scattered Clouds,350,2013-09-03 17:35:00
1:55 PM,84.2,62.6,48,29.85,10.0,North,3.5,-,N/A,,Mostly Cloudy,350,2013-09-03 17:55:00
2:15 PM,87.8,64.4,46,29.84,10.0,NNE,5.8,-,N/A,,Mostly Cloudy,30,2013-09-03 18:15:00
2:35 PM,86.0,64.4,48,29.83,10.0,NNE,4.6,-,N/A,,Scattered Clouds,30,2013-09-03 18:35:00
2:55 PM,87.8,64.4,46,29.83,10.0,Calm,Calm,-,N/A,,Scattered Clouds,0,2013-09-03 18:55:00
3:15 PM,89.6,62.6,40,29.82,10.0,North,3.5,-,N/A,,Scattered Clouds,10,2013-09-03 19:15:00
3:35 PM,89.6,62.6,40,29.81,10.0,North,3.5,-,N/A,,Scattered Clouds,350,2013-09-03 19:35:00
3:55 PM,87.8,64.4,46,29.81,10.0,Calm,Calm,-,N/A,,Mostly Cloudy,0,2013-09-03 19:55:00
4:15 PM,86.0,66.2,51,29.81,10.0,NNE,6.9,-,N/A,,Mostly Cloudy,30,2013-09-03 20:15:00
4:35 PM,84.2,66.2,55,29.82,10.0,North,3.5,-,N/A,,Mostly Cloudy,360,2013-09-03 20:35:00
4:55 PM,87.8,64.4,46,29.82,10.0,NNE,3.5,-,N/A,,Scattered Clouds,20,2013-09-03 20:55:00
5:15 PM,87.8,64.4,46,29.82,10.0,NNE,5.8,-,N/A,,Clear,30,2013-09-03 21:15:00
5:35 PM,87.8,64.4,46,29.83,10.0,ENE,4.6,-,N/A,,Clear,70,2013-09-03 21:35:00
5:55 PM,87.8,64.4,46,29.83,10.0,Calm,Calm,-,N/A,,Clear,0,2013-09-03 21:55:00
6:15 PM,87.8,64.4,46,29.84,10.0,ENE,3.5,-,N/A,,Clear,70,2013-09-03 22:15:00
6:35 PM,87.8,66.2,49,29.85,10.0,ENE,3.5,-,N/A,,Clear,70,2013-09-03 22:35:00
6:55 PM,84.2,66.2,55,29.85,10.0,Calm,Calm,-,N/A,,Clear,0,2013-09-03 22:55:00
7:15 PM,82.4,68.0,62,29.86,10.0,Calm,Calm,-,N/A,,Clear,0,2013-09-03 23:15:00
7:35 PM,80.6,66.2,61,29.86,10.0,ENE,3.5,-,N/A,,Clear,70,2013-09-03 23:35:00
7:55 PM,78.8,69.8,74,29.87,10.0,Calm,Calm,-,N/A,,Clear,0,2013-09-03 23:55:00
8:15 PM,78.8,69.8,74,29.88,10.0,Calm,Calm,-,N/A,,Clear,0,2013-09-04 00:15:00
8:35 PM,78.8,68.0,69,29.89,10.0,Calm,Calm,-,N/A,,Clear,0,2013-09-04 00:35:00
8:55 PM,75.2,71.6,89,29.89,10.0,Calm,Calm,-,N/A,,Mostly Cloudy,0,2013-09-04 00:55:00
9:15 PM,75.2,73.4,94,29.90,10.0,Calm,Calm,-,N/A,,Mostly Cloudy,0,2013-09-04 01:15:00
9:35 PM,73.4,71.6,94,29.92,7.0,Calm,Calm,-,N/A,,Scattered Clouds,0,2013-09-04 01:35:00
9:55 PM,73.4,71.6,94,29.92,7.0,Calm,Calm,-,N/A,,Scattered Clouds,0,2013-09-04 01:55:00
10:15 PM,73.4,71.6,94,29.92,7.0,Calm,Calm,-,N/A,,Scattered Clouds,0,2013-09-04 02:15:00
10:35 PM,73.4,71.6,94,29.93,5.0,Calm,Calm,-,N/A,,Clear,0,2013-09-04 02:35:00
10:55 PM,73.4,71.6,94,29.93,5.0,Calm,Calm,-,N/A,,Scattered Clouds,0,2013-09-04 02:55:00
11:15 PM,73.4,71.6,94,29.93,5.0,Calm,Calm,-,N/A,,Clear,0,2013-09-04 03:15:00
11:35 PM,71.6,71.6,100,29.93,4.0,Calm,Calm,-,N/A,,Scattered Clouds,0,2013-09-04 03:35:00
11:55 PM,71.6,71.6,100,29.94,5.0,Calm,Calm,-,N/A,,Mostly Cloudy,0,2013-09-04 03:55:00